Flag for Canada Weather past 2 weeks in Qikiqtarjuaq, Nunavut, Canada

28 °F


Feels Like: 22 °F
Forecast: N/A
Wind: 6 mph from Northwest

Location: Broughton Island Airport

Current Time: Oct 4, 2015 at 7:48:10 PM

Latest Report: Oct 4, 2015 at 7:00 PM

Visibility: 9 mi

Pressure: 30.02 "Hg

Humidity: 80%

Dew point: 23 °F

Location of QikiqtarjuaqLocation

Historic Weather in Qikiqtarjuaq — Graph


Qikiqtarjuaq temperature yesterday

Maximum temperature yesterday: 36 °F (at 2:00 AM)
Minimum temperature yesterday: 28 °F (at 11:00 PM)
Average temperature yesterday: 32 °F

Past Weeks' High & Low Weather Summary

High45 °F (Oct 2, 1:00 AM)100% (Oct 3, 11:00 PM)30.29 "Hg (Oct 3, 11:00 PM)
Low23 °F (Sep 26, 9:00 PM)33% (Oct 2, 6:00 PM)29.43 "Hg (Sep 27, 9:00 PM)
Average32 °F75%29.87 "Hg
* Reported Sep 19 6:00 PM — Oct 4 6:00 PM, Qikiqtarjuaq, Weather by CustomWeather, © 2015

Note: Actual official high and low records may vary slightly from our data, if they occured in-between our weather recording intervals... More about our weather records


Qikiqtarjuaq weather history for previous 24 hours

Time TempWeatherWind HumidityBarometerVisibility
6:00 PM
Sun, Oct 4
30 °FOvercast.10 mph75%30.02 "Hg9 mi
5:00 PM30 °FOvercast.13 mph75%30.02 "Hg9 mi
4:00 PM32 °FOvercast.12 mph75%30.02 "Hg9 mi
3:01 PM30 °FLight snow. Cloudy.13 mph93%30.01 "Hg6 mi
2:00 PM30 °FLight snow. Mostly cloudy.7 mph93%30.01 "Hg8 mi
1:58 PM30 °FLight snow. Mostly cloudy.8 mph93%30.01 "Hg8 mi
1:01 PM30 °FLight snow. Overcast.6 mph86%30.01 "Hg9 mi
12:00 PM30 °FSnow flurries. Mostly cloudy.7 mph93%30.01 "Hg5 mi
11:00 AM30 °FLight snow. Cloudy.6 mph93%30.01 "Hg5 mi
10:00 AM30 °FLight snow. Cloudy.6 mph93%30.01 "Hg3 mi
9:00 AM30 °FLight snow. Ice fog.5 mph93%29.99 "Hg1 mi
8:45 AM30 °FLight snow. Overcast.7 mph93%29.99 "Hg2 mi
8:00 AM30 °FLight snow. Cloudy.10 mph86%29.98 "Hg3 mi
7:00 AM30 °FLight snow. Ice fog.13 mph86%29.97 "Hg1 mi
6:00 AM30 °FLight snow. Ice fog.3 mph93%29.96 "Hg1 mi
5:03 AM30 °FLight snow. Overcast.7 mph100%29.94 "Hg3 mi
4:00 AM30 °FLight snow. Mostly cloudy.9 mph93%29.94 "Hg3 mi
3:59 AM30 °FLight snow. Mostly cloudy.9 mph93%29.94 "Hg2 mi
3:02 AM30 °FLight snow. Overcast.8 mph93%29.95 "Hg3 mi
2:00 AM28 °FLight snow. Mostly cloudy.3 mph100%29.96 "Hg1 mi
1:55 AM28 °FLight snow. Mostly cloudy.3 mph100%29.96 "Hg1 mi
1:00 AM28 °FLight snow. Overcast.3 mph100%30.00 "Hg1 mi
12:00 AM28 °FLight snow. Ice fog.3 mph100%30.02 "Hg1 mi
11:00 PM
Sat, Oct 3
28 °FLight snow. Low clouds.No wind100%30.05 "Hg1 mi
10:00 PM30 °FLight snow. Ice fog.3 mph93%30.08 "Hg1 mi
9:00 PM30 °FLight snow. Overcast.No wind93%30.11 "Hg1 mi
8:00 PM30 °FLight snow. Overcast.6 mph86%30.14 "Hg4 mi
7:00 PM32 °FLight snow. Overcast.9 mph75%30.16 "Hg6 mi
Weather by CustomWeather, © 2015

See weather overviewHow to use our weather pages